sat.trackr.live / text

‹ back to catalog

ONEWEB-0053

NORAD 45157 · 2020-008AC

PAYLOAD ACTIVE UNKNOWN

§ Identity

Operator
Country
UK
Launch date
2020-02-06
Launch site
TYMSC
Launch vehicle
Mass (kg)
RCS (m²)

Purposes: comms

External: N2YO · Heavens-Above · Gunter

§ Orbital elements

Epoch: 2026-09-20T02:41:46.830912Z

Period
109.89 min
Inclination
87.8895°
Eccentricity
0.0002174
Mean motion
13.10371378 rev/d
Perigee alt
1,220.1 km
Apogee alt
1,223.4 km
Semi-major
7,599.9 km
B*
-1.5668e-3
RAAN
17.3833°
Arg perigee
107.0165°
Mean anomaly
253.1201°
Rev number
32,034

§ Raw data

ONEWEB-00531 45157U 20008AC  26263.11234758 -.00000534  00000+0 -15668-2 0  99932 45157  87.8895  17.3833 0002174 107.0165 253.1201 13.10371378320348

JSON: /api/v1/satellites/45157 · /tle

For live sub-satellite position, see the globe view (requires WebGL).

§ Visibility from observer

Set your observer location to see the next 7 days of passes ≥ 10°. The values pass through the URL so the page stays shareable.

No JS? Fill the form by hand. The geolocation button needs JavaScript.